Regional Weather Roundup
Issued by NWS Grand Forks, ND

Home | Current Version | Previous Version | Text Only | Print | Product List | Glossary On
Versions: 1 2 3 4 5 6 7 8 9 10 11 12 13 14 15 16 17 18 19 20 21 22 23 24 25 26 27 28 29 30 31 32 33 34 35 36 37 38 39 40 41 42 43 44 45 46 47 48 49 50
000
ASUS43 KFGF 191031
RWRFGF
PRAIRIE TO PINES  WEATHER ROUNDUP
NATIONAL WEATHER SERVICE EASTERN NORTH DAKOTA/GRAND FORKS ND
400 AM CST THU JAN 19 2017

 **SATELLITE DATA USED TO AUGMENT SKY COVER AT AUTOMATED STATIONS**
 *****  WEATHER ACROSS EASTERN NORTH DAKOTA  *****

CITY           SKY/WX    TMP DP  RH WIND       PRES   REMARKS
GRAND FORKS    FAIR      25  19  78 S12       29.61R WCI  14
GRAND FRKS AFB FAIR      25  19  77 S10       29.60R WCI  14
DEVILS LAKE    FAIR      25  19  78 S6        29.56S WCI  18
FARGO          FAIR      27  25  92 S13       29.64F WCI  16
WAHPETON ARPT  CLOUDY    27  23  86 SE6       29.67S VSB 1/2 WCI  20
$$

 ***** WEATHER ACROSS CENTRAL AND WESTERN NORTH DAKOTA  *****

CITY           SKY/WX    TMP DP  RH WIND       PRES   REMARKS
BISMARCK       FAIR      19  14  81 CALM      29.56F
MINOT          FAIR      27  22  81 SE3       29.49F
JAMESTOWN      FAIR      20  15  81 S9        29.58S WCI   9
MINOT AFB      FAIR      28  23  83 SW6       29.48F WCI  21
GARRISON         N/A     18  15  88 E3        29.50F
WILLISTON      FAIR      20  19  96 CALM      29.52F
DICKINSON      FAIR      24  18  77 S3        29.50F
HETTINGER      FAIR      13  10  88 CALM      29.55F
$$

 *****  OTHER AIRPORT OBSERVATIONS IN OUR AREA  *****

CITY           SKY/WX    TMP DP  RH WIND       PRES   REMARKS
WALHALLA       NOT AVBL
GRAFTON AIRPOR FAIR      23  19  86 S16       29.59F WCI  10
VALLEY CITY AR FAIR      23  23 100 S13       29.62S WCI  11
CANDO          NOT AVBL
CAVALIER APRT    N/A     23  19  86 S5        29.56S WCI  17
GWINNER          N/A     21  21 100 SW12      29.62F VSB 1/2 WCI   9
SHEYENNE NWR     N/A     23  21  93 S7        29.95S WCI  15
ROLLA            N/A    N/A N/A N/A MISG        N/A
 ***** THE ABOVE OBSERVATIONS ARE NON NWS ARE NOT QUALITY
       CONTROLLED AND MAY MIS-REPORT RAIN FOR SNOW...
$$

  *****  WEATHER ACROSS NORTHERN MINNESOTA  *****

CITY           SKY/WX    TMP DP  RH WIND       PRES   REMARKS
FLAG ISLAND    FAIR      19  16  86 S9        29.60S WCI   9
WARROAD        FAIR      34  25  69 S7        29.61R
ROSEAU         FAIR      30  25  80 S12       29.61R WCI  21
HALLOCK        FAIR      27  23  86 S17       29.58F WCI  14
THF RVR FALLS  FAIR      26  21  81 S7        29.64R WCI  18
BAUDETTE       FAIR      26  20  77 SE7       29.63S WCI  18
WASKISH        FAIR      30  27  86 S3        29.65S
CROOKSTON      FAIR      28  25  86 S15       29.65R WCI  17
STEPHEN NDAWN    N/A     27  23  86 S15         N/A  WCI  15
GREENBUSH NDAW   N/A     30  25  80 S13         N/A  WCI  20
$$
  *****  WEATHER ACROSS CENTRAL AND WEST MINNESOTA  *****

CITY           SKY/WX    TMP DP  RH WIND       PRES   REMARKS
FOSSTON        FAIR      25  19  80 S9        29.63F WCI  15
BEMIDJI        FAIR      24  22  96 SE6       29.66S WCI  16
PARK RAPIDS    FOG       28  25  88 S9        29.68S VSB 1/4 WCI  19
ELBOW LAKE     SNOW      29  29 100 E8        29.69S VSB 1/4 WCI  21
WADENA         MIX PCPN  28  28 100 S5        29.68F VSB 1/4 WCI  23
DETROIT LAKES  FOG       30  30 100 S9        29.66F VSB 1/4 WCI  22
MOORHEAD       FOG       27  27 100 S15       29.66S VSB 1/2 WCI  15
FERGUS FALLS   FOG       30  30 100 S12       29.71F VSB 1/2 WCI  21
MORRIS MN      MIX PCPN  28  28 100 SE7       29.68F VSB<1/4 WCI  21
STAPLES        SNOW      30  30 100 S7        29.71S VSB 1/4 WCI  23
$$
  *****  WEATHER ELSEWHERE ACROSS MINNESOTA  *****

CITY           SKY/WX    TMP DP  RH WIND       PRES   REMARKS
DULUTH         FOG       33  33 100 SW10      29.75F VSB 1/4 WCI  25
INTRNTL FALLS  FAIR      21  18  88 SE3       29.67F
ELY            FAIR      21  19  93 SE5       29.72F FOG     WCI  15
CLOQUET        FOG       34  32  93 S8        29.75F VSB 1/4
WHEATON        FAIR      28  27  93 E7        29.69S FOG     WCI  21
BRAINERD       FOG       32  32 100 S7        29.73S VSB 1/4
HIBBING        FOG       27  27 100 S6        29.72S VSB 1/2 WCI  20
ALEXANDRIA     FOG       32  32 100 S10       29.71S VSB 1/4 WCI  24
SAINT CLOUD    FOG       26  26 100 SE5       29.76F VSB 1/4 WCI  20
MINNEAPOLIS    FAIR      31  29  92 SE7       29.82S WCI  24
$$

  *****  WEATHER ACROSS SOUTH DAKOTA  *****

CITY           SKY/WX    TMP DP  RH WIND       PRES   REMARKS
SIOUX FALLS    FAIR      37  34  89 S9        29.73F
BROOKINGS      FAIR      34  33  96 S10       29.70
WATERTOWN      FAIR      24  23  96 S6        29.66F FOG     WCI  17
HURON          FAIR      32  31  96 S13       29.65F WCI  22
SISSETON         N/A     32  29  88 S6        29.64F
ABERDEEN       FOG       18  14  84 SW6       29.63F VSB 1/4 WCI  10
MITCHELL       FAIR      33  32  96 SE10      29.69F WCI  25
PIERRE         FAIR      14  10  84 CALM      29.59S
MOBRIDGE       FAIR      15  10  80 CALM      29.56F
RAPID CITY     FAIR      26  19  74 NW3       29.54F
$$

  *****  SOME WEATHER IN NEARBY STATES *****

CITY           SKY/WX    TMP DP  RH WIND       PRES   REMARKS
GLASGOW MT     FAIR      25  21  85 SE9       29.48S WCI  15
GREAT FALLS MT FAIR      41  25  53 S15       29.46S
CHEYENNE WY    FAIR      37  14  38 NW14G23   29.64S
SCOTTSBLUFF NE FAIR      28  20  71 NW7       29.62F WCI  21
OMAHA NE       FAIR      33  29  85 SE5       29.83F
DES MOINES IA  FOG       34  34 100 E6        29.89F VSB 1/4
DAVENPORT IA   FAIR      29  28  96 SE7       29.98F FOG     WCI  22
CHICAGO IL     FOG       33  33 100 S7        30.02F VSB 3/4
EAU CLAIRE WI  FAIR      31  31 100 S3        29.86F FOG
LA CROSSE WI   FAIR      36  32  85 S9        29.92F
$$

  *****  SOME NATIONAL WEATHER *****

CITY           SKY/WX    TMP DP  RH WIND       PRES   REMARKS
LA GUARDIA NY  CLOUDY    42  35  76 CALM      30.02S
RALEIGH NC     FAIR      39  35  86 CALM      30.07R
ATLANTA GA     MOCLDY    55  51  86 CALM      30.03F
NEW ORLEANS LA CLOUDY    70  69  97 S8        29.95S
OKLAHOMA CITY  CLOUDY    48  46  93 S12       29.82F
ALBUQUERQUE NM FAIR      35  29  78 CALM      29.94F
SALT LAKE CITY CLOUDY    26  22  84 N3        29.83S FOG
LOS ANGELES CA LGT RAIN  54  51  90 SE5       30.03S FOG
BOISE ID       MIX PCPN  36  33  89 S10       29.64F
SEATTLE WA     MOCLDY    45  41  86 S10       29.44R
$$

*** WEATHER ACROSS MANITOBA...SASKATCHEWAN AND ONTARIO ***
                ***ONTARIO***

CITY           SKY/WX    TMP DP  RH WIND       PRES   REMARKS
GERALDTON      MOCLDY    12  10  92 SE5       29.78F WCI   4
THUNDER BAY    MOCLDY    12  12 100 W5        29.80F WCI   4
SIOUX LOOKOUT  PTCLDY    28  23  80 S8        29.64F WCI  20
TORONTO        CLOUDY    36  32  87 W7        29.99S
BIG TROUT LK   MOCLDY    30  28  93 SE14G20   29.63F WCI  20
PICKLE LAKE    NOT AVBL
DRYDEN         MOCLDY    28  23  80 S10       29.61F WCI  19
KENORA         PTCLDY    30  23  74 S12G20    29.58F WCI  21
$$
                *** MANITOBA***

CITY           SKY/WX    TMP DP  RH WIND       PRES   REMARKS
BRANDON        PTCLDY    27  23  86 W7        29.47F WCI  19
DAUPHIN        CLEAR     39  30  70 W9        29.40F
ISLAND LAKE    PTCLDY    30  27  86 SE10      29.42F WCI  21
PILOT MOUND      N/A     27  21  80 SW8         N/A  WCI  18
THE PAS        PTCLDY    25  23  93 S3        29.28R
THOMPSON       NOT AVBL
WINNIPEG       PTCLDY    25  21  86 S13       29.53R WCI  13
LYNN LAKE      CLOUDY    30  30 100 SE10      29.27R WCI  21
CHURCHILL      FLURRIES  16  16 100 SE15      29.55F WCI   1
GILLAM         FRZ RAIN  30  28  93 SE5       29.45S
$$
                ***SASKATCHEWAN***

CITY           SKY/WX    TMP DP  RH WIND       PRES   REMARKS
ESTEVAN        PTCLDY    27  21  80 SW12      29.47F WCI  16
KINDERSLEY     MOCLDY    32  28  86 SW9       29.32S WCI  24
LLOYDMINSTER   CLEAR     28  25  86 SW15      29.24R WCI  17
PRINCE ALBERT  CLOUDY    18  16  93 CALM      29.29S
REGINA         CLEAR     32  27  80 SW13      29.41S WCI  22
YORKTON        CLEAR     32  28  86 S8        29.38S WCI  25
N. BATTLEFORD  CLEAR     32  32 100 CALM      29.30R
LA RONGE       PTCLDY    21  19  93 CALM      29.23S
SASKATOON      MOCLDY    34  30  86 SW7       29.32S
SWIFT CURRENT  PTCLDY    37  32  81 SW13      29.37S
$$
NOTE: THESE ARE AUTOMATED STATIONS WITH LIMITED QUALITY CONTROL
      "FAIR" INDICATES FEW OR NO CLOUDS BELOW 12,000 FEET WITH NO
      SIGNIFICANT WEATHER AND/OR OBSTRUCTIONS TO VISIBILITY.
      SKY/WX - SKY CONDITION AND SIGNIFICANT WEATHER.
      TMP - AIR TEMPERATURE.    DP   - DEWPOINT TEMPERATURE.
      RH  - RELATIVE HUMIDITY.  PRES - PRESSURE.
      HX  - HEAT INDEX.         WCI  - WIND CHILL INDEX.
$



USA.gov is the U.S. government's official web portal to all federal, state and local government web resources and services.